TimeCDT,TemperatureF,Dew PointF,Humidity,Sea Level PressureIn,VisibilityMPH,Wind Direction,Wind SpeedMPH,Gust SpeedMPH,PrecipitationIn,Events,Conditions,WindDirDegrees,DateUTC
12:15 AM,50.0,50.0,100,30.06,1.2,Calm,Calm,-,N/A,,Clear,0,2013-05-07 05:15:00
12:35 AM,46.4,46.4,100,30.06,0.2,Calm,Calm,-,N/A,Fog,Fog,0,2013-05-07 05:35:00
12:55 AM,48.2,48.2,100,30.07,0.8,Calm,Calm,-,N/A,,Scattered Clouds,0,2013-05-07 05:55:00
1:15 AM,46.4,46.4,100,30.06,0.5,Calm,Calm,-,N/A,Fog,Fog,0,2013-05-07 06:15:00
1:35 AM,46.4,46.4,100,30.06,0.2,Calm,Calm,-,N/A,Fog,Fog,0,2013-05-07 06:35:00
1:55 AM,46.4,46.4,100,30.06,0.5,Calm,Calm,-,N/A,Fog,Fog,0,2013-05-07 06:55:00
2:15 AM,46.4,46.4,100,30.06,0.8,Calm,Calm,-,N/A,,Mist,0,2013-05-07 07:15:00
2:35 AM,46.4,46.4,100,30.06,0.2,Calm,Calm,-,N/A,Fog,Fog,0,2013-05-07 07:35:00
2:55 AM,46.4,46.4,100,30.06,0.2,Calm,Calm,-,N/A,Fog,Fog,0,2013-05-07 07:55:00
3:15 AM,46.4,46.4,100,30.06,8.0,Calm,Calm,-,N/A,,Scattered Clouds,0,2013-05-07 08:15:00
3:35 AM,46.4,46.4,100,30.07,6.0,Calm,Calm,-,N/A,,Clear,0,2013-05-07 08:35:00
3:55 AM,44.6,44.6,100,30.07,5.0,Calm,Calm,-,N/A,,Clear,0,2013-05-07 08:55:00
4:15 AM,44.6,44.6,100,30.06,8.0,Calm,Calm,-,N/A,,Clear,0,2013-05-07 09:15:00
4:35 AM,44.6,44.6,100,30.05,8.0,Calm,Calm,-,N/A,,Clear,0,2013-05-07 09:35:00
4:55 AM,46.4,46.4,100,30.05,7.0,Calm,Calm,-,N/A,,Clear,0,2013-05-07 09:55:00
5:15 AM,44.6,44.6,100,30.04,3.0,Calm,Calm,-,N/A,,Partly Cloudy,0,2013-05-07 10:15:00
5:35 AM,44.6,44.6,100,30.04,10.0,SSW,3.5,-,N/A,,Scattered Clouds,200,2013-05-07 10:35:00
5:55 AM,44.6,44.6,100,30.05,5.0,Calm,Calm,-,N/A,,Scattered Clouds,0,2013-05-07 10:55:00
6:15 AM,44.6,44.6,100,30.05,7.0,Calm,Calm,-,N/A,,Partly Cloudy,0,2013-05-07 11:15:00
6:35 AM,44.6,44.6,100,30.06,10.0,Calm,Calm,-,N/A,,Clear,0,2013-05-07 11:35:00
6:55 AM,44.6,44.6,100,30.07,8.0,Calm,Calm,-,N/A,,Clear,0,2013-05-07 11:55:00
7:15 AM,42.8,42.8,100,30.08,5.0,Calm,Calm,-,N/A,,Clear,0,2013-05-07 12:15:00
7:35 AM,44.6,44.6,100,30.08,9.0,Calm,Calm,-,N/A,,Clear,0,2013-05-07 12:35:00
7:55 AM,48.2,48.2,100,30.08,8.0,Calm,Calm,-,N/A,,Clear,0,2013-05-07 12:55:00
8:15 AM,50.0,50.0,100,30.09,10.0,Calm,Calm,-,N/A,,Clear,0,2013-05-07 13:15:00
8:35 AM,51.8,51.8,100,30.10,10.0,Calm,Calm,-,N/A,,Clear,0,2013-05-07 13:35:00
8:55 AM,55.4,50.0,82,30.11,10.0,Calm,Calm,-,N/A,,Clear,0,2013-05-07 13:55:00
9:15 AM,59.0,50.0,72,30.11,10.0,Calm,Calm,-,N/A,,Clear,0,2013-05-07 14:15:00
9:35 AM,60.8,51.8,72,30.11,10.0,Calm,Calm,-,N/A,,Clear,0,2013-05-07 14:35:00
9:55 AM,64.4,51.8,64,30.10,10.0,South,5.8,-,N/A,,Clear,180,2013-05-07 14:55:00
10:15 AM,66.2,50.0,56,30.10,10.0,South,9.2,-,N/A,,Clear,190,2013-05-07 15:15:00
10:35 AM,68.0,50.0,52,30.09,10.0,South,9.2,-,N/A,,Clear,180,2013-05-07 15:35:00
10:55 AM,71.6,48.2,43,30.09,10.0,South,10.4,17.3,N/A,,Clear,170,2013-05-07 15:55:00
11:15 AM,73.4,48.2,41,30.09,10.0,SE,10.4,17.3,N/A,,Clear,140,2013-05-07 16:15:00
11:35 AM,73.4,46.4,38,30.08,10.0,SE,13.8,-,N/A,,Clear,130,2013-05-07 16:35:00
11:55 AM,75.2,42.8,31,30.07,10.0,SE,10.4,17.3,N/A,,Clear,130,2013-05-07 16:55:00
12:15 PM,77.0,42.8,29,30.06,10.0,SE,11.5,-,N/A,,Clear,130,2013-05-07 17:15:00
12:35 PM,77.0,44.6,32,30.06,10.0,South,11.5,17.3,N/A,,Clear,170,2013-05-07 17:35:00
12:55 PM,78.8,44.6,30,30.04,10.0,SSE,11.5,17.3,N/A,,Clear,150,2013-05-07 17:55:00
1:15 PM,80.6,44.6,28,30.04,10.0,SE,10.4,20.7,N/A,,Clear,140,2013-05-07 18:15:00
1:35 PM,80.6,44.6,28,30.02,10.0,South,12.7,16.1,N/A,,Clear,180,2013-05-07 18:35:00
1:55 PM,80.6,44.6,28,30.02,10.0,South,12.7,-,N/A,,Clear,180,2013-05-07 18:55:00
2:15 PM,82.4,44.6,26,30.01,10.0,SE,12.7,18.4,N/A,,Clear,130,2013-05-07 19:15:00
2:35 PM,82.4,44.6,26,30.00,10.0,SSW,9.2,-,N/A,,Clear,210,2013-05-07 19:35:00
2:55 PM,84.2,42.8,23,29.99,10.0,ESE,9.2,19.6,N/A,,Clear,120,2013-05-07 19:55:00
3:15 PM,84.2,42.8,23,29.98,10.0,South,12.7,-,N/A,,Clear,180,2013-05-07 20:15:00
3:35 PM,84.2,41.0,22,29.97,10.0,SSE,13.8,18.4,N/A,,Clear,150,2013-05-07 20:35:00
3:55 PM,84.2,41.0,22,29.96,10.0,SE,6.9,21.9,N/A,,Clear,130,2013-05-07 20:55:00
4:15 PM,84.2,41.0,22,29.95,10.0,SSE,12.7,-,N/A,,Clear,150,2013-05-07 21:15:00
4:35 PM,84.2,41.0,22,29.95,10.0,SSE,9.2,19.6,N/A,,Clear,160,2013-05-07 21:35:00
4:55 PM,84.2,42.8,23,29.94,10.0,South,10.4,18.4,N/A,,Clear,170,2013-05-07 21:55:00
5:15 PM,86.0,44.6,23,29.93,10.0,SE,12.7,19.6,N/A,,Clear,130,2013-05-07 22:15:00
5:35 PM,84.2,44.6,25,29.93,10.0,South,16.1,20.7,N/A,,Clear,170,2013-05-07 22:35:00
5:55 PM,84.2,44.6,25,29.93,10.0,South,12.7,-,N/A,,Clear,170,2013-05-07 22:55:00
6:15 PM,84.2,44.6,25,29.92,10.0,South,16.1,24.2,N/A,,Clear,170,2013-05-07 23:15:00
6:35 PM,82.4,44.6,26,29.92,10.0,SSE,12.7,20.7,N/A,,Clear,150,2013-05-07 23:35:00
6:55 PM,82.4,44.6,26,29.91,10.0,SSE,11.5,23.0,N/A,,Clear,150,2013-05-07 23:55:00
7:15 PM,82.4,44.6,26,29.91,10.0,SSE,13.8,20.7,N/A,,Clear,160,2013-05-08 00:15:00
7:35 PM,80.6,44.6,28,29.91,10.0,SE,11.5,20.7,N/A,,Clear,140,2013-05-08 00:35:00
7:55 PM,78.8,44.6,30,29.92,10.0,SSE,8.1,-,N/A,,Clear,150,2013-05-08 00:55:00
8:15 PM,77.0,44.6,32,29.92,4.0,SE,8.1,-,N/A,,Haze,140,2013-05-08 01:15:00
8:35 PM,75.2,46.4,36,29.93,10.0,SSE,5.8,-,N/A,,Clear,150,2013-05-08 01:35:00
8:55 PM,73.4,46.4,38,29.93,10.0,South,6.9,-,N/A,,Clear,170,2013-05-08 01:55:00
9:15 PM,71.6,46.4,41,29.94,10.0,SSE,5.8,-,N/A,,Clear,160,2013-05-08 02:15:00
9:35 PM,71.6,46.4,41,29.94,10.0,SSE,4.6,-,N/A,,Clear,160,2013-05-08 02:35:00
9:55 PM,69.8,46.4,43,29.95,10.0,SSE,3.5,-,N/A,,Clear,160,2013-05-08 02:55:00
10:15 PM,66.2,48.2,52,29.96,10.0,ESE,3.5,-,N/A,,Clear,110,2013-05-08 03:15:00
10:35 PM,64.4,48.2,56,29.96,10.0,ESE,4.6,-,N/A,,Clear,110,2013-05-08 03:35:00
10:55 PM,64.4,48.2,56,29.96,10.0,ESE,5.8,-,N/A,,Clear,110,2013-05-08 03:55:00
11:15 PM,64.4,48.2,56,29.97,10.0,ESE,5.8,-,N/A,,Partly Cloudy,120,2013-05-08 04:15:00
11:35 PM,64.4,46.4,52,29.96,10.0,ESE,6.9,-,N/A,,Clear,120,2013-05-08 04:35:00
11:55 PM,66.2,46.4,49,29.96,10.0,SE,5.8,-,N/A,,Clear,140,2013-05-08 04:55:00